Temperature
17 17 17 17 17 17 17 17 17 17 17 17 17 17 17 17 17 17 16 17 17 16 16 16 16 16 16 16 16 16 16 16 16 16 16 16 16 16 16 16 15 15 15
17 17 17 17 17 17 17 17 17 17 17 17 17 17 17 17 16 16 16 16 17 16 16 16 16 16 16 16 16 16 16 16 16 16 16 16 16 16 16 15 15 15 15
17 17 17 17 17 17 16 17 17 17 17 17 17 17 17 16 16 16 16 16 16 16 16 16 16 16 16 16 16 16 16 16 16 16 16 16 16 16 16 15 15 15 15
17 17 17 17 17 17 17 17 17 17 17 17 17 17 17 16 16 16 16 16 16 16 16 16 16 16 16 16 16 16 16 16 16 16 16 16 16 16 16 15 15 15 15
17 17 17 17 17 17 17 17 17 17 17 17 17 17 17 17 16 16 16 16 16 16 16 16 16 16 16 16 16 16 16 16 16 16 16 16 16 16 15 15 15 15 15
17 17 17 17 17 17 17 17 16 16 17 17 17 17 17 17 17 16 16 16 16 16 16 15 16 16 16 16 16 16 16 16 16 16 16 15 15 15 15 15 15 15 15
17 17 17 17 17 17 16 16 16 16 17 17 17 17 17 17 17 16 16 16 16 16 16 15 16 15 16 16 16 16 16 16 16 15 15 15 15 15 15 15 15 15 15
17 17 17 17 17 16 16 16 16 17 17 17 17 18 18 18 17 17 17 16 16 16 16 16 16 15 15 15 16 16 16 15 15 15 15 15 15 15 15 15 15 15 15
17 17 17 17 16 16 16 16 16 16 17 17 17 18 18 18 18 17 17 17 16 16 16 16 16 16 15 15 15 16 16 15 15 15 15 15 15 15 15 15 15 15 15
17 17 17 17 16 16 16 16 16 16 16 17 17 17 17 18 18 18 18 17 17 16 16 16 16 16 16 16 16 16 16 16 15 15 15 15 15 15 15 15 15 15 15
17 17 17 17 16 16 16 16 16 16 16 17 17 17 17 17 17 18 18 18 17 17 17 16 16 16 16 16 16 16 16 16 15 15 15 15 15 15 15 15 15 15 15
17 17 17 17 16 16 16 16 16 16 16 16 17 17 17 17 18 18 18 18 18 18 17 17 17 16 16 16 16 16 16 16 16 15 15 15 15 15 15 15 15 15 15
17 17 16 17 16 16 16 16 16 16 16 16 16 16 17 17 17 18 18 18 18 18 17 17 17 17 16 16 16 16 16 16 16 15 15 15 15 15 15 15 15 15 15
17 17 17 17 16 16 16 16 16 16 16 16 16 16 16 17 17 17 17 18 18 18 18 18 17 17 17 16 16 16 16 16 16 16 15 15 15 15 15 15 15 15 15
17 16 16 16 16 16 16 16 16 16 16 16 16 16 16 16 16 17 17 17 18 18 19 18 17 17 16 16 16 16 16 16 16 16 16 16 15 15 15 15 15 15 15
16 16 16 16 16 16 16 16 16 16 16 16 16 16 16 16 16 16 16 17 17 17 18 18 17 17 16 16 16 16 16 16 16 16 16 16 16 15 15 15 15 15 15
16 16 16 16 16 16 16 16 16 16 16 16 16 16 16 16 16 16 16 16 16 16 17 17 17 16 16 16 16 16 15 15 16 16 16 16 15 15 15 15 15 15 15
17 16 16 16 16 16 16 16 16 16 15 15 15 15 15 15 15 16 16 16 16 16 16 16 16 16 15 15 15 15 15 16 15 15 15 15 15 15 15 15 15 15 15
16 16 16 16 16 16 16 16 16 15 15 15 15 15 15 15 15 15 15 15 15 16 15 15 16 16 15 15 15 15 15 15 15 15 15 15 15 15 15 15 15 15 14
16 16 16 16 16 16 16 16 16 15 15 15 15 15 15 15 15 15 15 15 15 15 15 15 15 15 15 15 14 14 15 15 14 15 15 15 14 14 14 14 14 14 14
16 16 16 16 16 15 15 15 15 15 15 15 15 15 15 15 15 15 15 15 14 14 15 15 15 15 15 14 14 14 14 14 14 14 14 14 14 14 14 14 14 14 14
16 16 16 16 15 15 15 15 15 15 15 15 14 14 14 14 14 14 14 14 14 14 14 14 14 14 14 13 13 13 13 14 14 14 13 13 13 13 13 13 13 13 13
16 16 16 15 15 15 15 15 15 15 15 14 14 14 14 14 14 14 14 14 14 14 14 13 13 13 13 13 13 12 12 12 12 12 12 12 13 13 12 13 12 12 12
15 15 15 15 15 15 15 15 15 15 14 14 14 14 14 14 13 13 13 13 13 13 13 12 12 12 12 12 12 11 11 11 12 12 11 12 12 12 12 12 11 11 11
15 15 15 15 15 15 14 14 14 14 14 13 13 13 13 13 13 13 13 12 12 12 12 12 12 12 12 11 11 11 11 11 11 11 11 10 11 11 11 11 11 11 10
14 14 14 14 14 14 14 14 14 13 13 13 12 12 12 12 12 12 12 12 11 11 11 11 11 11 11 10 10 10 10 10 10 11 10 10 10 10 10 10 10 10 10
Wind_Speed
6 6 5 4 5 5 5 3 4 4 4 5 4 4 3 4 5 5 9 9 8 7 8 7 8 8 8 8 9 9 8 8 8 8 8 8 8 8 8 7 7 7 6
6 6 6 5 4 4 3 3 4 4 3 3 4 4 3 4 5 4 7 10 9 7 7 7 8 8 8 8 8 8 8 8 8 8 8 8 8 8 8 7 7 7 6
7 6 5 5 5 5 4 4 4 4 4 4 4 4 4 3 5 4 4 6 9 9 7 6 7 8 8 8 8 8 8 8 9 9 9 8 8 8 8 8 8 7 7
8 6 5 5 5 5 4 4 3 3 3 3 4 3 4 4 4 4 5 5 4 6 9 8 7 7 7 7 8 9 9 9 10 10 10 10 9 9 9 8 8 8 8
9 7 5 5 6 5 4 4 4 3 4 3 4 3 3 3 4 4 4 4 4 4 6 10 8 7 7 7 8 9 10 10 10 11 10 11 10 10 10 9 9 9 9
9 8 6 6 6 5 4 3 3 3 3 3 3 3 3 3 3 4 4 4 4 5 5 6 8 9 9 7 7 8 9 10 10 11 11 11 11 10 11 11 10 10 11
9 8 6 6 6 5 5 5 5 6 5 4 3 4 4 4 3 3 3 3 4 4 4 5 5 5 8 11 9 8 9 10 10 11 11 11 11 12 12 11 12 12 12
10 9 7 7 7 5 6 5 5 5 5 5 4 3 4 5 5 4 4 5 4 5 6 7 5 5 5 7 10 11 9 10 11 11 12 12 12 13 13 13 13 13 13
10 9 9 8 7 7 6 6 6 6 5 5 4 3 3 3 4 4 4 4 4 4 5 5 7 6 7 6 6 11 11 10 10 11 11 12 13 13 13 13 14 14 15
11 11 10 8 7 7 6 8 7 6 6 5 5 4 3 2 2 3 5 5 5 5 5 5 5 7 7 7 5 5 10 10 10 10 10 11 12 12 13 13 13 14 14
10 11 10 9 8 7 7 6 6 7 6 6 5 5 4 3 5 4 2 3 5 5 5 5 5 6 6 7 7 8 10 11 11 11 11 11 11 12 12 12 13 13 14
9 10 10 9 9 7 7 7 6 7 6 6 5 5 5 4 5 4 3 4 4 4 4 4 5 6 6 7 8 8 10 11 12 12 12 11 11 11 11 12 12 13 13
9 10 10 8 8 7 7 7 7 6 7 6 7 6 6 5 5 4 4 4 3 3 4 5 6 6 7 7 6 10 11 12 12 13 13 12 12 12 12 12 12 13 13
8 9 9 9 9 9 8 7 7 7 6 7 8 6 6 6 5 5 5 5 5 5 5 5 4 6 6 6 5 9 9 13 13 13 13 13 13 13 13 13 13 12 12
8 10 10 9 9 9 8 7 6 6 6 7 7 8 8 6 6 6 5 6 6 6 4 5 5 4 5 5 4 7 8 11 13 13 13 13 14 14 14 14 14 14 14
8 10 10 10 9 9 8 8 7 7 7 7 6 6 7 6 6 6 6 6 6 7 6 3 3 3 2 5 5 7 8 8 12 13 14 14 14 14 14 14 14 14 14
9 10 10 10 10 9 8 8 8 8 9 8 7 7 8 7 6 6 6 6 7 6 7 6 4 3 3 6 3 5 7 8 10 14 13 13 14 14 14 14 14 14 14
9 10 9 9 9 9 9 9 9 8 9 9 8 8 8 7 7 7 6 7 6 6 7 8 6 4 5 6 5 6 8 8 8 9 12 12 12 13 13 13 13 14 14
9 9 9 9 9 9 8 8 8 8 8 8 8 8 8 8 8 7 7 7 7 7 7 7 7 5 5 4 5 6 7 6 9 7 10 12 12 12 13 13 13 13 13
8 8 9 8 8 8 8 8 8 8 7 7 7 7 7 7 8 8 7 7 7 7 6 7 7 5 5 4 4 5 6 5 6 7 6 6 10 13 15 14 14 12 12
7 7 7 7 7 7 7 7 8 7 6 5 5 5 5 3 2 3 5 5 6 6 6 6 6 5 4 3 4 5 6 6 6 5 6 6 6 8 9 13 13 10 10
7 7 7 7 6 5 4 5 6 6 5 5 5 4 4 3 2 2 2 3 4 4 5 5 4 4 4 4 5 6 6 6 6 4 5 7 6 6 7 8 3 6 7
6 6 6 6 6 4 6 6 5 4 4 4 4 3 3 2 3 3 3 3 0 3 3 4 4 5 5 5 6 6 6 7 8 7 6 8 7 7 7 4 3 1 3
5 5 5 5 4 4 5 6 6 5 4 3 2 2 2 1 1 2 2 2 2 1 0 1 2 3 4 5 5 6 7 7 8 6 5 7 7 7 7 5 1 3 2
5 4 4 4 4 4 4 4 5 5 4 4 4 3 2 2 4 2 2 2 2 2 4 5 4 3 4 5 6 5 5 6 7 5 2 5 6 7 7 6 3 6 5
6 6 6 5 6 5 6 5 4 4 5 5 5 6 9 7 7 5 2 2 2 1 1 1 2 1 1 2 2 4 5 6 6 5 3 5 7 7 7 5 4 5 6
Wind_Direction
165 154 151 159 161 148 159 170 151 135 144 146 144 136 125 116 116 127 128 146 155 157 160 161 160 161 161 161 162 159 158 158 156 155 157 157 158 157 157 156 157 155 153
161 165 165 169 163 162 149 170 150 155 163 138 142 132 140 126 123 139 135 149 161 164 171 173 172 174 174 172 171 170 172 173 170 168 169 171 174 173 173 175 174 171 168
168 177 171 178 164 155 153 168 156 166 168 158 143 142 141 138 136 142 143 148 158 167 175 181 183 180 181 184 185 183 183 187 183 182 183 184 186 189 189 186 187 185 185
177 188 179 179 164 172 172 157 181 173 164 164 154 154 139 145 144 159 162 163 162 162 169 175 183 186 188 195 197 193 192 194 194 195 198 197 197 199 200 199 199 199 202
186 195 190 166 181 182 186 188 160 185 171 170 162 159 161 151 157 162 157 165 162 180 170 161 180 191 198 202 205 203 201 201 202 204 207 206 205 206 208 210 211 212 214
192 198 191 183 195 185 184 182 163 191 190 190 185 149 171 163 170 160 183 176 179 189 188 171 183 192 197 206 210 209 208 209 209 211 212 213 212 212 215 217 219 220 221
190 202 204 183 203 193 195 189 193 183 196 185 188 184 184 190 181 179 194 197 187 191 189 189 207 197 187 195 204 209 213 214 212 213 214 217 219 219 220 222 225 228 229
195 199 209 199 199 193 194 197 207 212 193 192 217 214 200 185 200 196 192 200 204 195 198 198 199 210 230 194 183 198 213 218 217 218 219 220 224 224 225 227 229 232 234
199 204 200 209 199 207 194 201 204 216 211 203 223 236 238 214 177 178 201 204 209 215 216 196 202 200 216 220 193 192 203 214 219 221 221 222 226 227 227 230 233 235 238
202 201 200 202 208 214 196 208 205 217 222 213 201 237 277 336 267 180 191 188 200 216 226 228 209 200 210 216 205 188 195 209 216 220 222 224 227 228 230 233 237 240 241
203 203 199 200 203 214 211 218 198 223 221 230 219 209 215 223 248 262 206 190 195 202 204 216 222 219 211 219 213 199 193 211 219 222 224 227 231 233 235 237 241 244 243
199 200 200 201 204 211 207 211 212 213 228 233 241 232 224 226 234 238 235 222 212 194 199 210 221 220 220 220 215 167 197 215 221 225 228 231 234 237 238 239 241 243 244
195 194 200 200 204 205 207 208 209 221 217 221 230 236 239 240 246 250 255 247 235 213 201 218 214 222 226 225 208 184 207 216 223 226 229 233 235 238 239 241 244 245 246
200 191 197 199 203 203 205 205 213 212 216 222 229 235 241 238 239 245 253 259 249 236 215 222 212 218 227 232 206 198 217 211 221 227 232 235 238 241 243 245 246 246 247
197 191 195 197 197 197 199 202 216 216 218 224 224 220 232 229 234 241 246 255 265 264 242 204 222 208 224 233 205 230 234 208 215 226 232 236 239 241 243 244 245 247 249
198 194 195 195 196 196 199 209 214 215 221 225 233 234 235 234 230 236 241 245 255 266 273 258 227 238 251 256 202 234 241 203 216 225 230 235 238 241 243 245 247 249 250
196 198 199 197 198 200 201 208 221 212 217 220 224 226 229 244 240 236 234 239 241 247 258 264 251 232 235 268 248 250 248 239 228 211 221 232 238 241 243 245 248 251 253
198 200 201 201 203 204 204 208 216 215 216 218 221 227 232 230 230 247 243 241 241 246 255 265 271 254 233 245 253 260 260 252 260 202 209 226 235 239 243 246 249 252 254
200 202 202 203 206 207 206 208 211 215 219 221 222 224 231 235 232 235 237 242 241 238 245 259 262 263 255 250 255 256 261 263 267 236 207 217 225 235 243 246 248 251 253
197 199 200 204 207 208 208 208 207 210 216 223 226 227 230 235 236 238 238 244 249 250 244 252 260 257 251 249 259 269 267 253 263 275 270 248 226 229 238 240 243 247 251
194 195 197 202 206 207 207 207 206 204 207 213 220 225 227 228 281 267 263 255 249 248 250 249 257 260 262 274 273 277 280 280 268 271 279 274 256 249 242 232 229 237 248
189 187 192 193 194 202 174 185 205 201 200 207 212 212 204 177 154 141 40 11 340 276 271 272 269 276 289 289 295 293 295 290 286 299 288 281 280 277 277 273 210 214 241
186 183 185 186 187 179 152 163 181 191 190 195 203 207 219 188 175 191 168 169 30 1 337 287 285 296 301 309 305 295 297 295 295 302 296 285 285 285 284 302 89 186 243
168 167 170 173 172 154 144 160 165 173 169 158 162 186 184 155 169 190 177 149 120 65 17 268 302 318 325 323 303 293 293 286 275 273 291 286 293 296 298 300 158 171 224
149 152 150 145 143 119 112 140 161 153 134 114 95 74 84 101 55 65 137 138 123 109 90 89 78 67 38 10 339 306 302 294 293 295 314 293 300 304 296 283 230 185 222
128 118 103 95 95 89 85 95 129 135 126 115 95 79 62 62 54 46 115 123 117 84 51 111 114 137 36 55 8 337 324 310 309 309 2 321 308 313 299 294 304 292 271
Height
1571 1573 1574 1576 1578 1579 1580 1581 1583 1583 1585 1586 1587 1587 1588 1589 1589 1590 1590 1589 1590 1591 1592 1593 1594 1595 1596 1597 1598 1598 1599 1600 1601 1601 1602 1603 1603 1604 1605 1605 1606 1606 1607
1571 1573 1574 1576 1578 1580 1581 1582 1583 1584 1585 1586 1587 1588 1589 1589 1589 1590 1591 1590 1591 1591 1592 1593 1594 1595 1596 1597 1598 1599 1599 1600 1601 1602 1602 1603 1603 1604 1605 1605 1606 1607 1607
1570 1572 1575 1576 1578 1579 1580 1581 1582 1584 1585 1586 1587 1588 1588 1589 1590 1590 1591 1592 1591 1592 1592 1593 1594 1595 1596 1596 1597 1598 1599 1600 1601 1601 1602 1603 1603 1604 1605 1605 1606 1606 1607
1569 1571 1574 1576 1577 1579 1580 1581 1583 1584 1586 1586 1587 1588 1588 1588 1589 1590 1591 1591 1592 1593 1592 1593 1593 1594 1595 1596 1597 1598 1598 1599 1600 1601 1602 1602 1603 1603 1604 1605 1605 1606 1606
1569 1571 1574 1575 1576 1579 1580 1582 1583 1584 1585 1586 1587 1587 1588 1589 1589 1590 1591 1592 1592 1592 1593 1592 1593 1593 1594 1595 1596 1596 1597 1598 1599 1600 1600 1601 1602 1603 1603 1604 1604 1605 1605
1568 1570 1572 1574 1576 1578 1579 1581 1582 1583 1584 1585 1587 1587 1588 1589 1589 1590 1591 1591 1592 1592 1593 1593 1592 1593 1593 1594 1594 1595 1596 1597 1597 1598 1599 1600 1601 1601 1602 1603 1603 1604 1604
1566 1569 1572 1573 1575 1577 1578 1580 1581 1582 1584 1585 1586 1587 1588 1588 1589 1589 1590 1591 1591 1592 1592 1592 1592 1593 1593 1592 1593 1594 1594 1595 1595 1596 1597 1598 1599 1599 1600 1601 1601 1602 1602
1565 1568 1569 1572 1573 1575 1577 1578 1579 1582 1583 1584 1585 1586 1587 1588 1587 1588 1589 1589 1590 1590 1591 1591 1591 1591 1592 1592 1592 1592 1592 1593 1594 1594 1595 1595 1596 1597 1598 1598 1599 1600 1600
1563 1565 1567 1570 1572 1574 1576 1577 1578 1580 1582 1583 1584 1585 1585 1585 1586 1587 1587 1588 1588 1589 1590 1590 1590 1590 1590 1591 1591 1590 1591 1591 1592 1592 1593 1593 1594 1595 1595 1596 1596 1597 1597
1561 1564 1566 1568 1570 1573 1574 1576 1577 1579 1580 1582 1582 1583 1584 1584 1585 1585 1586 1586 1586 1587 1588 1588 1589 1589 1589 1589 1589 1589 1589 1589 1590 1590 1590 1591 1591 1592 1592 1593 1593 1593 1594
1558 1561 1564 1566 1568 1571 1572 1574 1575 1577 1578 1580 1581 1582 1583 1583 1584 1584 1584 1585 1586 1586 1586 1586 1587 1588 1588 1588 1587 1587 1587 1587 1588 1588 1588 1589 1589 1589 1590 1590 1590 1590 1590
1556 1559 1561 1564 1566 1568 1570 1571 1573 1574 1576 1577 1579 1580 1581 1582 1583 1583 1583 1584 1584 1584 1585 1585 1585 1586 1586 1586 1586 1585 1585 1585 1586 1586 1586 1586 1586 1586 1587 1587 1587 1587 1587
1553 1555 1559 1561 1564 1566 1567 1569 1571 1573 1574 1575 1576 1578 1579 1580 1581 1582 1582 1582 1582 1583 1583 1583 1583 1584 1584 1584 1584 1583 1583 1583 1583 1583 1584 1584 1584 1584 1584 1584 1584 1584 1583
1551 1553 1556 1558 1561 1563 1565 1567 1569 1570 1571 1572 1574 1575 1576 1578 1579 1580 1580 1581 1580 1581 1581 1581 1582 1582 1582 1582 1581 1581 1581 1580 1581 1581 1581 1581 1581 1581 1581 1580 1580 1580 1580
1548 1550 1553 1555 1558 1560 1562 1564 1566 1567 1569 1570 1571 1572 1573 1575 1576 1577 1578 1578 1579 1578 1578 1578 1579 1579 1579 1579 1578 1578 1578 1578 1577 1578 1577 1577 1577 1577 1577 1577 1577 1576 1576
1545 1547 1550 1553 1555 1557 1559 1561 1563 1564 1566 1567 1568 1569 1570 1572 1573 1574 1575 1575 1576 1577 1576 1576 1577 1577 1576 1577 1576 1575 1575 1574 1574 1574 1574 1574 1574 1573 1573 1573 1573 1572 1572
1542 1545 1547 1550 1552 1554 1556 1557 1560 1561 1562 1564 1565 1566 1567 1568 1570 1571 1572 1572 1573 1574 1574 1574 1574 1573 1572 1572 1573 1572 1572 1571 1571 1570 1570 1570 1570 1569 1569 1568 1568 1568 1567
1540 1542 1545 1547 1549 1551 1553 1554 1556 1558 1559 1560 1561 1562 1564 1565 1565 1567 1568 1569 1569 1570 1570 1570 1570 1570 1569 1569 1568 1568 1569 1569 1568 1566 1566 1565 1565 1564 1564 1563 1563 1562 1562
1537 1539 1542 1544 1546 1548 1549 1551 1553 1554 1555 1557 1558 1559 1560 1561 1562 1563 1564 1565 1566 1566 1567 1567 1567 1567 1566 1566 1565 1564 1565 1563 1564 1563 1561 1560 1559 1559 1558 1558 1557 1557 1556
1534 1536 1539 1541 1543 1544 1546 1548 1549 1551 1552 1553 1554 1555 1556 1558 1559 1560 1561 1561 1562 1562 1562 1563 1563 1563 1562 1562 1561 1561 1561 1560 1559 1559 1558 1556 1554 1553 1553 1552 1551 1551 1550
1531 1534 1536 1538 1540 1542 1543 1545 1546 1548 1549 1550 1551 1552 1553 1554 1555 1556 1558 1558 1559 1559 1559 1559 1559 1559 1559 1558 1558 1558 1557 1556 1555 1554 1553 1552 1551 1549 1548 1547 1545 1545 1544
1529 1531 1533 1535 1537 1538 1540 1542 1543 1545 1546 1547 1548 1549 1550 1551 1551 1552 1553 1554 1555 1555 1556 1556 1556 1556 1555 1555 1554 1554 1553 1553 1552 1551 1549 1548 1547 1546 1544 1543 1541 1539 1538
1526 1528 1530 1532 1533 1535 1537 1538 1540 1542 1543 1544 1545 1546 1548 1548 1548 1549 1550 1550 1551 1551 1552 1552 1552 1552 1552 1551 1550 1550 1549 1548 1547 1546 1545 1543 1543 1541 1540 1538 1535 1534 1533
1523 1525 1527 1529 1531 1532 1534 1535 1537 1538 1540 1541 1542 1543 1544 1545 1545 1546 1547 1547 1548 1548 1548 1549 1549 1548 1548 1547 1547 1546 1545 1544 1542 1542 1540 1539 1538 1537 1535 1533 1530 1528 1527
1520 1522 1525 1527 1528 1530 1531 1533 1534 1536 1537 1538 1539 1540 1541 1542 1542 1543 1544 1545 1545 1546 1546 1546 1546 1545 1544 1543 1543 1543 1542 1541 1540 1539 1536 1535 1533 1532 1530 1528 1526 1523 1522
1517 1520 1523 1524 1526 1527 1529 1530 1532 1534 1535 1536 1536 1537 1538 1539 1540 1541 1542 1543 1543 1543 1543 1543 1542 1542 1542 1541 1539 1539 1538 1538 1537 1536 1533 1532 1530 1528 1526 1524 1522 1520 1518